Regional Weather Roundup
Issued by NWS Newport/Morehead, NC

Current Version | Previous Version | Text Only | Print | Product List | Glossary Off
Versions: 1 2 3 4 5 6 7 8 9 10 11 12 13 14 15 16 17 18 19 20 21 22 23 24 25 26 27 28 29 30 31 32 33 34 35 36 37 38 39 40 41 42 43 44 45 46 47 48 49 50
000 ASUS42 KMHX 070725 RWRMHX WEATHER ROUNDUP FOR EASTERN NORTH CAROLINA NATIONAL WEATHER SERVICE NEWPORT/MOREHEAD CITY NC 200 AM EST SUN FEB 07 2016 NOTE: "FAIR" INDICATES FEW OR NO CLOUDS BELOW 12,000 FEET WITH NO SIGNIFICANT WEATHER AND/OR OBSTRUCTIONS TO VISIBILITY NCZ015>017-031-032-045>047-102-103-070800- NORTH COAST CITY SKY/WX TMP DP RH WIND PRES REMARKS EDENTON CLOUDY 39 33 81 N7 30.21F ELIZABETH CITY CLOUDY 39 31 72 N10 30.23S KITTY HAWK CLOUDY 41 30 64 N10 30.17F MANTEO CLOUDY 41 32 69 NE10G18 30.20F $$ NCZ045>047-081-094-103-104-070800- CENTRAL COAST CITY SKY/WX TMP DP RH WIND PRES REMARKS FRISCO MOCLDY 45 38 76 NE15G24 30.14F SWANQUARTER N/A 41 N/A N/A N6G13 30.18S $$ NCZ095-097-098-100-101-070800- SOUTHERN COAST CITY SKY/WX TMP DP RH WIND PRES REMARKS BEAUFORT LGT RAIN 39 34 82 N16G24 30.12F CEDAR ISLAND N/A 43 N/A N/A N24G35 30.18F JACKSONVILLE LGT RAIN 40 32 73 N17 30.13F PINEY ISLAND LGT RAIN N/A N/A N/A MISG 30.16F WILMINGTON LGT RAIN 39 34 82 N17G24 30.12F $$ NCZ011>013-027>030-043-044-078>080-089-090>093-098-070800- COASTAL PLAIN CITY SKY/WX TMP DP RH WIND PRES REMARKS AHOSKIE PTCLDY 35 31 87 N5 30.21F CLINTON LGT RAIN 38 35 89 N5 30.19S ELIZABETHTOWN RAIN 37 36 93 NE3 30.17F GOLDSBORO MOCLDY 39 32 75 N6 30.18F GREENVILLE CLOUDY 39 32 75 NE5 30.21F HAVELOCK LGT RAIN 41 33 73 N16G22 30.18F KENANSVILLE LGT RAIN 37 33 89 CALM 30.19F KINSTON LGT RAIN 40 32 73 N5 30.21S NEW BERN CLOUDY 41 31 67 N13G21 30.20F RICHLANDS CLOUDY 37 30 75 N9G16 30.16F ROCKY MOUNT CLOUDY 39 30 70 E5 30.20F WASHINGTON CLOUDY 39 30 70 CALM 30.20F WHITEVILLE LGT RAIN 38 34 87 NE8 30.15F $$ AMZ130-135-150-152-154-156-158-170-250-252-270-ANZ085-086-088-633-658-670-070800- MARINE OBSERVATIONS STATION/POSITION TIME TEMP WIND PRES WAVE SWELL AIR SEA DIR/SP/G HT/PER HT/PER (UTC) (F) (DEG/KT/KT) (MB) (FT/S) (FT/S) CHESAPEAKE LIGHT 0700 40 20/ 13/ 14 1024.6 64 E VA BEACH 0650 45 53 20/ 16/ 21 1022.7 4/10 3/10 DUCK 0700 42 45 360/ 15/ 18 1021.5 2 E DUCK 0711 44 N/A 4/10 2/11 OREGON INLET 0700 43 46 10/ 13/ 17 1021.6 13E OREGON INLT 0700 46 N/A 5/10 2/11 HATTERAS CG 0700 45 50 10/ 25/ 28 1020.1 DIAMOND BUOY 0650 54 71 20/ 23/ 29 1018.8 6/11 3/11 CAPE LOOKOUT NOT AVBL BEAUFORT LAB 0700 40 49 10/ 18/ 23 1018.5 30 SE NEW RVR IN 0708 43 65 1017.1 30 SE NEW RVR IN 0625 64 N/A 8/ 6 2/11 27 SE WRIGHTSVLE 0708 47 360/ 31 1017.3 5 SE WRIGHTSVLE 0608 43 53 10/ 29/ 37 1019.7 225 S CAPE HAT 0650 65 69 110/ 16/ 17 N/A 7/11 5/11 41 SE CHARLESTON 0650 50 64 10/ 33/ 41 1013.0 10/ 7 3/15 $$

USA.gov is the U.S. government's official web portal to all federal, state and local government web resources and services.